1489615201.05,822,9.81,73268.5,-12.21,-13.23,-14.79,0,*60
1489615202.26,823,9.81,73274.0,-12.21,-13.23,-14.89,0,*6E
1489615203.49,824,9.81,73272.0,-12.21,-13.33,-14.89,0,*68
1489615204.7,825,9.81,73274.5,-12.21,-13.23,-14.89,0,*68
1489615205.98,826,9.81,73280.8,-12.23,-13.29,-14.83,0,*69
1489615207.23,827,9.81,73284.3,-12.21,-13.33,-14.79,0,*64
1489615208.48,828,9.81,73290.0,-12.21,-13.33,-14.79,0,*6B
1489615209.71,829,9.81,73292.8,-12.21,-13.33,-14.89,0,*65
1489615210.96,830,9.81,73294.0,-12.21,-13.33,-14.93,0,*66
1489615212.24,831,9.81,73288.3,-12.23,-13.29,-14.97,0,*6A
1489615213.52,832,9.81,73296.5,-12.23,-13.29,-14.83,0,*6C
1489615214.78,833,9.81,73314.0,-12.23,-13.29,-14.65,0,*65
1489615216.03,834,9.81,73306.5,-12.23,-13.23,-14.55,0,*6B
1489615217.31,835,9.81,73304.3,-12.23,-13.29,-14.51,0,*64
1489615218.57,836,9.81,73306.3,-12.23,-13.23,-14.79,0,*67
1489615219.82,837,9.81,73294.0,-12.23,-13.23,-14.83,0,*63
1489615221.08,838,9.81,73292.3,-12.21,-13.33,-14.79,0,*6A
1489615222.36,839,9.81,73304.3,-12.23,-13.37,-14.93,0,*69
1489615223.64,840,9.81,73294.8,-12.23,-13.29,-14.97,0,*6C
1489615224.91,841,9.81,73294.8,-12.23,-13.37,-14.93,0,*66
1489615226.19,842,9.81,73272.8,-12.23,-13.29,-14.93,0,*6A
1489615227.44,843,9.81,73268.5,-12.23,-13.43,-14.97,0,*63
1489615228.7,844,9.81,73272.0,-12.23,-13.43,-14.97,0,*64
1489615229.95,845,9.81,73274.5,-12.23,-13.43,-15.01,0,*6B
1489615231.21,846,9.81,73282.5,-12.23,-13.51,-14.97,0,*65
1489615232.49,847,9.81,73286.0,-12.23,-13.37,-15.01,0,*6A
1489615233.75,848,9.81,73288.3,-12.23,-13.51,-15.01,0,*65
1489615235.0,849,9.81,73282.5,-12.23,-13.43,-15.01,0,*67
1489615236.22,850,9.81,73272.8,-12.23,-13.43,-15.15,0,*6A
1489615237.46,851,9.81,73276.0,-12.23,-13.51,-15.15,0,*68
1489615238.69,852,9.81,73276.8,-12.23,-13.43,-15.11,0,*6C
1489615239.92,853,9.81,73290.0,-12.23,-13.51,-15.11,0,*6E
1489615241.16,854,9.81,73292.0,-12.23,-13.55,-15.25,0,*6A
1489615242.39,855,9.81,73302.0,-12.23,-13.65,-15.25,0,*68
1489615243.62,856,9.81,73308.0,-12.23,-13.55,-15.15,0,*6B
1489615244.88,857,9.81,73310.0,-12.27,-13.61,-15.29,0,*66
1489615246.14,858,9.81,73312.0,-12.27,-13.61,-15.15,0,*66
1489615247.39,859,9.81,73312.3,-12.27,-13.69,-15.01,0,*6A
1489615248.65,860,9.81,73304.8,-12.27,-13.55,-14.97,0,*61
1489615249.88,861,9.81,73298.8,-12.27,-13.47,-14.89,0,*6C
1489615251.11,862,9.81,73302.5,-12.27,-13.47,-14.89,0,*6F
1489615252.36,863,9.81,73314.0,-12.27,-13.47,-14.97,0,*61
1489615253.59,864,9.81,73338.0,-12.27,-13.47,-15.07,0,*6E
1489615254.82,865,9.81,73340.0,-12.29,-13.55,-15.01,0,*64
1489615256.03,866,9.81,73338.5,-12.29,-13.55,-15.15,0,*62
1489615257.26,867,9.81,73342.5,-12.27,-13.55,-15.15,0,*6D
1489615258.49,868,9.81,73330.8,-12.29,-13.55,-15.01,0,*69
1489615259.69,869,9.81,73316.8,-12.29,-13.47,-14.69,0,*64
1489615260.94,870,9.81,73326.5,-12.27,-13.47,-14.83,0,*66
1489615262.17,871,9.81,73324.5,-12.29,-13.55,-15.01,0,*61
1489615263.4,872,9.81,73316.8,-12.29,-13.55,-15.21,0,*60
1489615264.66,873,9.81,73318.0,-12.27,-13.69,-15.21,0,*60
1489615265.91,874,9.81,73306.8,-12.27,-13.69,-15.21,0,*67
1489615267.18,875,9.81,73280.8,-12.27,-13.61,-15.29,0,*66
1489615268.43,876,9.81,73288.3,-12.27,-13.69,-15.21,0,*65
1489615269.71,877,9.81,73292.3,-12.27,-13.61,-15.21,0,*6C
1489615270.95,878,9.81,73296.8,-12.27,-13.73,-15.29,0,*68
1489615272.17,879,9.81,73310.8,-12.29,-13.69,-15.29,0,*6C
1489615273.38,880,9.81,73318.3,-12.29,-13.69,-15.29,0,*6A
1489615274.61,881,9.81,73332.3,-12.29,-13.69,-15.35,0,*66
1489615275.84,882,9.81,73330.5,-12.29,-13.73,-15.01,0,*69
1489615277.08,883,9.81,73308.5,-12.31,-13.65,-14.61,0,*61
1489615278.36,884,9.81,73304.0,-12.31,-13.37,-14.01,0,*67
1489615279.59,885,9.81,73310.3,-12.33,-13.37,-13.65,0,*61
1489615280.84,886,9.81,73332.5,-12.31,-13.33,-13.51,0,*63
1489615282.1,887,9.81,73312.8,-12.31,-13.23,-13.37,0,*63
1489615283.34,888,9.81,73294.5,-12.31,-13.19,-13.23,0,*60
1489615284.59,889,9.81,73292.3,-12.31,-13.15,-13.33,0,*6C
1489615285.84,890,9.81,73306.3,-12.31,-13.15,-13.33,0,*64
1489615287.06,891,9.81,73294.8,-12.31,-13.15,-13.47,0,*66
1489615288.29,892,9.81,73286.0,-12.29,-13.01,-13.47,0,*69
1489615289.53,893,9.81,73298.8,-12.31,-13.15,-13.79,0,*69
1489615290.79,894,9.81,73284.5,-12.31,-13.19,-14.05,0,*6E
1489615292.0,895,9.81,73280.8,-12.29,-13.15,-14.15,0,*6B
1489615293.25,896,9.81,73294.0,-12.31,-13.19,-13.87,0,*61
1489615294.48,897,9.81,73268.3,-12.29,-13.15,-14.01,0,*6C
1489615295.68,898,9.81,73284.8,-12.29,-13.11,-13.73,0,*65
1489615296.91,899,9.81,73292.5,-12.29,-13.11,-13.61,0,*67
1489615298.14,900,9.81,73302.8,-12.29,-13.11,-14.01,0,*67
1489615299.34,901,9.81,73298.0,-12.29,-13.15,-13.73,0,*60
1489615300.54,902,9.81,73264.8,-12.29,-13.11,-13.73,0,*67
1489615301.79,903,9.81,73304.5,-12.27,-13.11,-13.87,0,*63
1489615303.02,904,9.81,73316.8,-12.29,-13.01,-14.11,0,*63
1489615304.25,905,9.81,73302.0,-12.29,-13.11,-14.47,0,*60
1489615305.48,906,9.81,73314.8,-12.27,-13.15,-14.61,0,*6D
1489615306.7,907,9.81,73320.0,-12.29,-13.15,-14.75,0,*67
1489615307.95,908,9.81,73328.0,-12.27,-13.15,-14.01,0,*65
1489615309.18,909,9.81,73334.5,-12.29,-13.15,-13.83,0,*67
1489615310.43,910,9.81,73326.5,-12.27,-13.01,-13.73,0,*6B
1489615311.68,911,9.81,73322.3,-12.27,-13.01,-14.11,0,*69
1489615312.93,912,9.81,73322.3,-12.27,-12.97,-13.97,0,*6D
1489615314.19,913,9.81,73332.3,-12.27,-12.97,-13.61,0,*65
1489615315.42,914,9.81,73336.3,-12.27,-12.97,-13.73,0,*61
1489615316.67,915,9.81,73326.8,-12.27,-12.97,-13.83,0,*6F
1489615317.89,916,9.81,73310.3,-12.27,-12.97,-13.69,0,*68
1489615319.14,917,9.81,73316.3,-12.27,-12.97,-13.87,0,*69
1489615320.37,918,9.81,73320.3,-12.27,-12.97,-14.15,0,*6A
1489615321.66,919,9.81,73320.5,-12.27,-13.01,-14.47,0,*62
1489615322.91,920,9.81,73314.0,-12.27,-13.11,-14.55,0,*6A
1489615324.16,921,9.81,73302.8,-12.27,-13.15,-14.55,0,*6F
1489615325.38,922,9.81,73328.0,-12.23,-13.11,-14.69,0,*63
1489615326.62,923,9.81,73324.5,-12.23,-13.23,-14.65,0,*6F
1489615327.83,924,9.81,73318.3,-12.23,-13.15,-14.11,0,*6E
1489615329.09,925,9.81,73284.5,-12.23,-13.07,-13.97,0,*65
1489615330.3,926,9.81,73300.5,-12.23,-13.07,-13.93,0,*62
1489615331.53,927,9.81,73306.5,-12.23,-13.07,-14.29,0,*65
1489615332.76,928,9.81,73316.0,-12.23,-13.07,-14.23,0,*60
1489615334.0,929,9.81,73328.8,-12.23,-13.11,-14.43,0,*60
1489615335.23,930,9.81,73306.8,-12.23,-13.11,-14.65,0,*6C
1489615336.45,931,9.81,73270.5,-12.23,-13.11,-14.37,0,*6A
1489615337.71,932,9.81,73348.5,-12.23,-13.11,-14.51,0,*69
1489615338.96,933,9.81,73322.0,-12.23,-13.11,-14.55,0,*6C
1489615340.18,934,9.81,73326.3,-12.27,-13.15,-14.89,0,*6A
1489615341.41,935,9.81,73336.8,-12.23,-13.23,-14.69,0,*64
1489615342.65,936,9.81,73338.3,-12.23,-13.15,-13.79,0,*64
1489615343.87,937,9.81,73312.5,-12.23,-13.11,-13.51,0,*6B
1489615345.1,938,9.81,73318.5,-12.27,-13.11,-13.73,0,*60
1489615346.34,939,9.81,73312.8,-12.27,-13.15,-13.87,0,*6E
1489615347.56,940,9.81,73326.3,-12.27,-13.15,-13.69,0,*60
1489615348.78,941,9.81,73328.3,-12.27,-13.11,-13.69,0,*65
1489615350.04,942,9.81,73310.3,-12.27,-13.11,-13.61,0,*6E
1489615351.26,943,9.81,73310.8,-12.27,-13.11,-13.55,0,*68
1489615352.51,944,9.81,73314.8,-12.27,-13.01,-13.43,0,*69
1489615353.8,945,9.81,73314.0,-12.27,-13.01,-14.01,0,*69
1489615355.04,946,9.81,73316.8,-12.27,-13.11,-14.43,0,*6D
1489615356.3,947,9.81,73316.0,-12.23,-13.11,-13.97,0,*66
1489615357.54,948,9.81,73300.8,-12.23,-13.07,-13.83,0,*6B
1489615358.76,949,9.81,73320.0,-12.23,-13.07,-14.11,0,*66
1489615360.01,950,9.81,73322.0,-12.23,-13.11,-14.55,0,*69
1489615361.23,951,9.81,73292.3,-12.23,-13.11,-14.69,0,*67
1489615362.45,952,9.81,73260.8,-12.23,-13.11,-14.11,0,*6B
1489615363.7,953,9.81,73264.3,-12.23,-13.11,-13.83,0,*66
1489615364.92,954,9.81,73258.5,-12.23,-13.07,-13.69,0,*62
1489615366.17,955,9.81,73278.8,-12.23,-13.07,-14.05,0,*6E
1489615367.39,956,9.81,73300.5,-12.23,-13.07,-13.93,0,*65
1489615368.61,957,9.81,73306.5,-12.23,-12.97,-13.65,0,*65
1489615369.86,958,9.81,73314.0,-12.23,-12.93,-13.83,0,*66
1489615371.12,959,9.81,73306.8,-12.23,-12.97,-13.97,0,*66
1489615372.35,960,9.81,73324.8,-12.23,-12.97,-14.15,0,*61
1489615373.6,961,9.81,73342.3,-12.23,-12.97,-14.55,0,*64
1489615374.85,962,9.81,73338.8,-12.23,-13.07,-14.51,0,*6B
1489615376.1,963,9.81,73338.5,-12.23,-13.11,-14.43,0,*6E
1489615377.35,964,9.81,73312.8,-12.23,-13.07,-14.05,0,*6C
1489615378.6,965,9.81,73314.3,-12.23,-13.11,-14.51,0,*6B
1489615379.85,966,9.81,73300.5,-12.23,-13.11,-14.55,0,*6C
1489615381.08,967,9.81,73302.8,-12.23,-13.11,-14.29,0,*66
1489615382.32,968,9.81,73304.3,-12.23,-13.15,-14.43,0,*61
1489615383.54,969,9.81,73288.5,-12.23,-13.15,-14.23,0,*66
1489615384.79,970,9.81,73290.8,-12.23,-13.15,-14.05,0,*6A
1489615386.03,971,9.81,73336.5,-12.23,-13.15,-14.05,0,*6B
1489615387.28,972,9.81,73314.0,-12.23,-13.15,-14.51,0,*69
1489615388.52,973,9.81,73312.0,-12.23,-13.15,-14.43,0,*6B
1489615389.77,974,9.81,73296.0,-12.23,-13.15,-14.51,0,*6F
1489615390.99,975,9.81,73306.3,-12.23,-13.15,-13.93,0,*67
1489615392.21,976,9.81,73310.5,-12.23,-13.11,-13.69,0,*65
1489615393.46,977,9.81,73294.8,-12.23,-13.07,-13.37,0,*68
1489615394.68,978,9.81,73258.8,-12.23,-12.93,-13.23,0,*6E
1489615395.91,979,9.81,73264.0,-12.23,-12.93,-13.15,0,*6A
1489615397.14,980,9.81,73304.3,-12.23,-12.93,-13.11,0,*68
1489615398.38,981,9.81,73318.5,-12.23,-12.83,-13.11,0,*68
1489615399.63,982,9.81,73318.8,-12.23,-12.83,-13.43,0,*6C
1489615400.87,983,9.81,73318.8,-12.23,-12.83,-13.51,0,*6E
1489615402.12,984,9.81,73262.8,-12.23,-12.83,-13.15,0,*69
1489615403.36,985,9.81,73264.8,-12.23,-12.71,-13.15,0,*65
1489615404.61,986,9.81,73252.8,-12.23,-12.79,-13.15,0,*6E
1489615405.86,987,9.81,73276.0,-12.23,-12.79,-13.11,0,*6B
1489615407.11,988,9.81,73318.8,-12.23,-12.79,-13.23,0,*65
1489615408.36,989,9.81,73344.5,-12.23,-12.79,-13.69,0,*6A
1489615409.6,990,9.81,73330.3,-12.23,-12.83,-13.93,0,*62
1489615410.86,991,9.81,73328.5,-12.23,-12.83,-13.79,0,*67
1489615412.09,992,9.81,73348.8,-12.23,-12.97,-13.93,0,*65
1489615413.31,993,9.81,73348.3,-12.23,-12.93,-13.51,0,*6E
1489615414.54,994,9.81,73316.0,-12.23,-12.93,-13.43,0,*6A
1489615415.74,995,9.81,73342.3,-12.21,-12.89,-13.51,0,*61
1489615416.99,996,9.81,73330.0,-12.19,-12.79,-13.23,0,*63
1489615418.22,997,9.81,73326.0,-12.21,-12.75,-13.11,0,*64
1489615419.45,998,9.81,73304.5,-12.21,-12.75,-13.11,0,*6B
1489615420.68,999,9.81,73306.3,-12.21,-12.79,-13.11,0,*66
1489615421.91,1000,9.81,73326.8,-12.21,-12.79,-13.19,0,*56
1489615423.17,1001,9.81,73324.5,-12.21,-12.79,-13.37,0,*5B
1489615424.4,1002,9.81,73318.8,-12.21,-12.75,-13.11,0,*50
1489615425.64,1003,9.81,73320.5,-12.21,-12.75,-13.11,0,*51
1489615426.9,1004,9.81,73304.0,-12.21,-12.79,-13.33,0,*5A
1489615428.16,1005,9.81,73316.8,-12.21,-12.75,-13.61,0,*50
1489615429.41,1006,9.81,73318.3,-12.21,-12.79,-13.87,0,*57
1489615430.64,1007,9.81,73320.3,-12.21,-12.79,-14.23,0,*5F
1489615431.88,1008,9.81,73306.5,-12.21,-13.01,-14.37,0,*5B
1489615433.14,1009,9.81,73296.5,-12.21,-13.01,-14.51,0,*5A
1489615434.37,1010,9.81,73296.3,-12.21,-13.07,-14.51,0,*54
1489615435.63,1011,9.81,73294.0,-12.21,-13.01,-14.47,0,*54
1489615436.89,1012,9.81,73296.0,-12.19,-13.07,-14.51,0,*5D
1489615438.13,1013,9.81,73330.0,-12.19,-13.07,-14.61,0,*5F
1489615439.33,1014,9.81,73328.8,-12.21,-13.07,-14.61,0,*53
1489615440.54,1015,9.81,73322.0,-12.21,-13.07,-14.65,0,*56
1489615441.75,1016,9.81,73316.0,-12.21,-13.07,-14.61,0,*51
1489615442.99,1017,9.81,73318.5,-12.21,-13.19,-14.51,0,*5C
1489615444.22,1018,9.81,73298.3,-12.19,-13.11,-14.37,0,*50
1489615445.43,1019,9.81,73314.3,-12.21,-13.11,-14.37,0,*5A
1489615446.63,1020,9.81,73318.8,-12.21,-13.11,-14.23,0,*55
1489615447.86,1021,9.81,73330.8,-12.19,-13.11,-14.11,0,*5E
1489615449.12,1022,9.81,73326.3,-12.19,-13.07,-14.05,0,*5F
1489615450.35,1023,9.81,73324.8,-12.21,-13.07,-14.05,0,*55
1489615451.58,1024,9.81,73320.3,-12.21,-13.01,-14.19,0,*59
1489615452.84,1025,9.81,73326.3,-12.19,-13.07,-14.05,0,*58
1489615454.1,1026,9.81,73326.0,-12.21,-13.01,-14.01,0,*52
1489615455.35,1027,9.81,73324.5,-12.19,-12.89,-13.79,0,*51
1489615456.56,1028,9.81,73320.0,-12.21,-12.93,-13.65,0,*53
1489615457.8,1029,9.81,73342.8,-12.21,-12.93,-14.01,0,*57
1489615459.03,1030,9.81,73312.0,-12.21,-13.01,-13.93,0,*59
1489615460.26,1031,9.81,73312.0,-12.21,-12.93,-14.05,0,*5A
1489615461.55,1032,9.81,73316.3,-12.19,-13.01,-14.47,0,*5E
1489615462.81,1033,9.81,73322.3,-12.19,-13.01,-14.37,0,*58
1489615464.02,1034,9.81,73334.3,-12.21,-13.07,-14.37,0,*52
1489615465.24,1035,9.81,73346.5,-12.21,-13.01,-13.93,0,*5C
1489615466.45,1036,9.81,73324.3,-12.21,-12.93,-13.93,0,*55
1489615467.68,1037,9.81,73320.8,-12.21,-12.93,-14.01,0,*58
1489615468.94,1038,9.81,73332.3,-12.19,-12.89,-14.01,0,*57
1489615470.18,1039,9.81,73334.0,-12.21,-12.93,-14.05,0,*52
1489615471.44,1040,9.81,73340.3,-12.21,-13.01,-14.05,0,*56
1489615472.67,1041,9.81,73336.0,-12.19,-13.07,-14.37,0,*5B
1489615473.91,1042,9.81,73328.0,-12.21,-13.01,-14.23,0,*50
1489615475.16,1043,9.81,73330.8,-12.19,-12.93,-13.37,0,*52
1489615476.4,1044,9.81,73330.5,-12.21,-12.89,-13.33,0,*51
1489615477.6,1045,9.81,73330.5,-12.21,-12.89,-13.11,0,*50
1489615478.84,1046,9.81,73336.3,-12.19,-12.89,-13.11,0,*58
1489615480.1,1047,9.81,73340.5,-12.19,-12.75,-13.23,0,*5B
1489615481.35,1048,9.81,73348.8,-12.19,-12.79,-13.73,0,*5D
1489615482.64,1049,9.81,73326.0,-12.19,-12.79,-14.01,0,*5E
1489615483.87,1050,9.81,73338.5,-12.19,-12.93,-13.93,0,*5E
1489615485.12,1051,9.81,73310.8,-12.19,-12.89,-13.79,0,*50
1489615486.35,1052,9.81,73322.5,-12.21,-12.89,-13.61,0,*51
1489615487.58,1053,9.81,73310.0,-12.19,-12.89,-13.73,0,*58
1489615488.81,1054,9.81,73304.0,-12.19,-12.89,-13.73,0,*5F
1489615490.04,1055,9.81,73314.3,-12.19,-12.93,-13.93,0,*5B
1489615491.33,1056,9.81,73304.8,-12.19,-13.01,-14.01,0,*5E
1489615492.59,1057,9.81,73290.0,-12.19,-12.93,-13.87,0,*5C
1489615493.84,1058,9.81,73286.3,-12.19,-13.01,-13.93,0,*5C
1489615495.12,1059,9.81,73290.8,-12.19,-13.01,-13.79,0,*59
1489615496.4,1060,9.81,73296.3,-12.19,-13.01,-13.87,0,*52
1489615497.66,1061,9.81,73342.5,-12.19,-13.01,-14.19,0,*53
1489615498.91,1062,9.81,73336.0,-12.19,-13.01,-14.11,0,*58
1489615500.15,1063,9.81,73320.5,-12.19,-13.07,-14.23,0,*5E
1489615501.38,1064,9.81,73334.3,-12.19,-13.07,-14.19,0,*50
1489615502.61,1065,9.81,73328.8,-12.19,-13.07,-13.93,0,*54
1489615503.84,1066,9.81,73304.5,-12.19,-13.07,-13.51,0,*59
1489615505.1,1067,9.81,73294.0,-12.19,-13.01,-13.51,0,*5E
1489615506.36,1068,9.81,73304.8,-12.19,-12.93,-13.33,0,*5F
1489615507.62,1069,9.81,73326.0,-12.19,-12.93,-13.33,0,*5E
1489615508.85,1070,9.81,73312.8,-12.19,-12.89,-13.07,0,*5A
1489615510.11,1071,9.81,73306.3,-12.19,-12.79,-13.11,0,*53
1489615511.37,1072,9.81,73376.3,-12.19,-12.79,-13.11,0,*50
1489615512.65,1073,9.81,73346.0,-12.19,-12.79,-13.87,0,*5E
1489615513.91,1074,9.81,73332.5,-12.19,-12.79,-13.51,0,*52
1489615515.16,1075,9.81,73328.0,-12.19,-12.79,-13.65,0,*54
1489615516.45,1076,9.81,73316.8,-12.19,-12.75,-13.37,0,*5C
1489615517.71,1077,9.81,73306.5,-12.19,-12.75,-13.51,0,*5D
1489615518.94,1078,9.81,73300.8,-12.17,-12.57,-13.07,0,*5F
1489615520.17,1079,9.81,73276.3,-12.17,-12.47,-12.83,0,*52
1489615521.43,1080,9.81,73268.5,-12.17,-12.57,-12.83,0,*55
1489615522.66,1081,9.81,73252.8,-12.17,-12.47,-12.75,0,*5C
1489615523.9,1082,9.81,73290.5,-12.17,-12.43,-12.71,0,*5F
1489615525.16,1083,9.81,73280.8,-12.13,-12.53,-12.65,0,*5E
1489615526.39,1084,9.81,73306.0,-12.13,-12.43,-12.53,0,*5D
1489615527.62,1085,9.81,73262.8,-12.17,-12.47,-12.61,0,*5D
1489615528.86,1086,9.81,73276.3,-12.13,-12.43,-12.71,0,*5F
1489615530.09,1087,9.81,73272.8,-12.13,-12.43,-12.53,0,*5E
1489615531.32,1088,9.81,73280.5,-12.13,-12.43,-12.53,0,*51
1489615532.56,1089,9.81,73314.3,-12.13,-12.43,-12.53,0,*50
1489615533.79,1090,9.81,73306.5,-12.13,-12.43,-12.71,0,*58
1489615535.02,1091,9.81,73312.8,-12.13,-12.39,-12.83,0,*59
1489615536.23,1092,9.81,73296.8,-12.13,-12.43,-12.97,0,*52
1489615537.51,1093,9.81,73278.8,-12.11,-12.57,-12.83,0,*51
1489615538.75,1094,9.81,73270.5,-12.11,-12.39,-12.93,0,*5F
1489615539.98,1095,9.81,73292.8,-12.13,-12.53,-12.93,0,*50
1489615541.19,1096,9.81,73292.8,-12.13,-12.39,-12.97,0,*5B
1489615542.39,1097,9.81,73274.3,-12.09,-12.43,-13.11,0,*53
1489615543.62,1098,9.81,73272.3,-12.11,-12.43,-13.11,0,*55
1489615544.9,1099,9.81,73298.0,-12.11,-12.65,-13.83,0,*5B
1489615546.18,1100,9.81,73296.8,-12.11,-12.65,-13.83,0,*5A
1489615547.44,1101,9.81,73308.8,-12.11,-12.71,-14.15,0,*56
1489615548.7,1102,9.81,73316.3,-12.11,-12.71,-14.15,0,*55
1489615549.96,1103,9.81,73326.5,-12.11,-12.83,-14.15,0,*59
1489615551.21,1104,9.81,73332.0,-12.11,-12.83,-14.29,0,*51
1489615552.42,1105,9.81,73326.8,-12.09,-12.97,-14.37,0,*53
1489615553.64,1106,9.81,73342.3,-12.09,-12.97,-14.43,0,*53
1489615554.88,1107,9.81,73334.0,-12.09,-12.97,-14.55,0,*55
1489615556.11,1108,9.81,73324.0,-12.09,-13.01,-14.65,0,*57
1489615557.37,1109,9.81,73336.0,-12.11,-13.01,-14.65,0,*5F
1489615558.63,1110,9.81,73346.5,-12.11,-13.11,-14.51,0,*51
1489615559.89,1111,9.81,73354.5,-12.11,-13.11,-14.01,0,*55
1489615561.15,1112,9.81,73352.5,-12.11,-13.11,-14.01,0,*56
1489615562.44,1113,9.81,73348.8,-12.11,-13.01,-13.97,0,*5E
1489615563.67,1114,9.81,73344.5,-12.09,-13.01,-14.15,0,*5D
1489615564.95,1115,9.81,73332.8,-12.11,-13.01,-13.79,0,*58
1489615566.18,1116,9.81,73334.8,-12.11,-12.97,-13.51,0,*5F
1489615567.44,1117,9.81,73292.8,-12.11,-12.93,-13.29,0,*55
1489615568.67,1118,9.81,73290.5,-12.09,-12.83,-13.15,0,*5D
1489615569.92,1119,9.81,73302.0,-12.11,-12.83,-13.11,0,*51
1489615571.18,1120,9.81,73290.8,-12.11,-12.79,-12.97,0,*51
1489615572.44,1121,9.81,73290.8,-12.11,-12.79,-12.97,0,*50
1489615573.72,1122,9.81,73304.8,-12.11,-12.71,-13.01,0,*55
1489615575.0,1123,9.81,73334.3,-12.11,-12.71,-13.29,0,*5E
1489615576.25,1124,9.81,73296.3,-12.09,-12.71,-13.37,0,*5F
1489615577.53,1125,9.81,73310.8,-12.11,-12.71,-13.83,0,*58
1489615578.79,1126,9.81,73308.3,-12.11,-12.83,-13.55,0,*5D
1489615580.05,1127,9.81,73294.5,-12.11,-12.79,-13.23,0,*58
1489615581.3,1128,9.81,73304.0,-12.11,-12.79,-13.23,0,*57
1489615582.55,1129,9.81,73306.5,-12.09,-12.65,-13.01,0,*52
1489615583.81,1130,9.81,73300.5,-12.11,-12.65,-12.97,0,*5D
1489615585.07,1131,9.81,73314.3,-12.11,-12.71,-12.97,0,*59
1489615586.35,1132,9.81,73332.5,-12.11,-12.71,-13.37,0,*51
1489615587.58,1133,9.81,73328.8,-12.09,-12.65,-13.51,0,*5C
1489615588.81,1134,9.81,73332.5,-12.09,-12.65,-13.43,0,*58
1489615590.03,1135,9.81,73344.0,-12.09,-12.65,-13.51,0,*5A
1489615591.31,1136,9.81,73344.5,-12.11,-12.71,-13.83,0,*5A
1489615592.57,1137,9.81,73316.0,-12.11,-12.79,-14.23,0,*5E
1489615593.82,1138,9.81,73316.5,-12.09,-12.83,-13.83,0,*50
1489615595.05,1139,9.81,73286.3,-12.09,-12.83,-13.51,0,*5E
1489615596.27,1140,9.81,73286.5,-12.09,-12.79,-13.11,0,*51
1489615597.5,1141,9.81,73284.5,-12.09,-12.65,-12.97,0,*52
1489615598.73,1142,9.88,73280.0,-12.09,-12.57,-12.93,0,*54
1489615599.96,1143,9.81,73278.3,-12.09,-12.65,-12.97,0,*50
1489615601.19,1144,9.81,73282.8,-12.09,-12.65,-12.97,0,*57
1489615602.42,1145,9.81,73284.8,-12.09,-12.71,-13.23,0,*5D
1489615603.65,1146,9.81,73286.0,-12.09,-12.71,-13.55,0,*5F
1489615604.87,1147,9.81,73284.5,-12.09,-12.71,-13.93,0,*54
1489615606.1,1148,9.81,73296.0,-12.09,-12.79,-14.15,0,*5A
1489615607.34,1149,9.81,73308.3,-12.07,-12.89,-14.33,0,*5E
1489615608.54,1150,9.81,73320.3,-12.09,-12.97,-14.23,0,*56
1489615609.8,1151,9.81,73324.3,-12.07,-12.89,-13.87,0,*5F
1489615611.03,1152,9.81,73342.5,-12.11,-12.93,-13.93,0,*55
1489615612.23,1153,9.81,73336.3,-12.09,-12.97,-14.23,0,*55
1489615613.47,1154,9.81,73346.3,-12.07,-12.93,-14.37,0,*5D
1489615614.69,1155,9.81,73360.0,-12.09,-13.11,-14.43,0,*5A
1489615615.94,1156,9.81,73358.0,-12.11,-13.11,-14.43,0,*50
1489615617.17,1157,9.81,73352.3,-12.09,-13.11,-14.51,0,*5B
1489615618.43,1158,9.81,73360.5,-12.11,-13.01,-14.37,0,*5C
1489615619.66,1159,9.81,73354.0,-12.09,-13.11,-14.43,0,*56
1489615620.86,1160,9.81,73342.0,-12.09,-13.11,-14.37,0,*5F
1489615622.14,1161,9.81,73338.8,-12.11,-13.01,-13.83,0,*5E
1489615623.34,1162,9.81,73332.0,-12.09,-13.11,-14.29,0,*52
1489615624.57,1163,9.81,73316.5,-12.09,-13.11,-13.83,0,*54
1489615625.8,1164,9.81,73320.5,-12.09,-13.01,-13.55,0,*59
1489615627.02,1165,9.81,73318.3,-12.09,-12.97,-13.83,0,*5D
1489615628.27,1166,9.81,73314.8,-12.11,-12.97,-13.79,0,*52
1489615629.5,1167,9.81,73308.3,-12.11,-12.97,-13.69,0,*52
1489615630.73,1168,9.81,73304.8,-12.09,-12.93,-13.83,0,*54
1489615631.97,1169,9.81,73314.8,-12.11,-12.97,-14.23,0,*55
1489615633.17,1170,9.81,73322.3,-12.09,-13.11,-14.29,0,*51
1489615634.42,1171,9.81,73312.0,-12.11,-13.11,-14.43,0,*55
1489615635.68,1172,9.81,73306.8,-12.11,-13.11,-14.51,0,*55
1489615636.9,1173,9.81,73318.3,-12.09,-13.15,-13.83,0,*51
1489615638.16,1174,9.81,73314.0,-12.11,-13.01,-13.65,0,*52
1489615639.39,1175,9.81,73300.3,-12.11,-13.11,-13.51,0,*55
1489615640.64,1176,9.81,73320.5,-12.11,-13.01,-13.69,0,*5C
1489615641.9,1177,9.81,73302.0,-12.11,-13.01,-13.69,0,*5D
1489615643.1,1178,9.81,73290.0,-12.09,-12.97,-13.43,0,*5D
1489615644.36,1179,9.81,73316.0,-12.11,-12.93,-13.29,0,*5D
1489615645.64,1180,9.81,73292.8,-12.11,-12.83,-13.29,0,*5A
1489615646.92,1181,9.81,73302.5,-12.11,-12.79,-13.01,0,*54
1489615648.17,1182,9.81,73292.0,-12.09,-12.65,-12.83,0,*58
1489615649.46,1183,9.81,73312.5,-12.11,-12.53,-12.79,0,*50
1489615650.69,1184,9.81,73322.3,-12.09,-12.43,-12.83,0,*5A
1489615651.92,1185,9.81,73322.0,-12.11,-12.43,-12.97,0,*57
1489615653.14,1186,9.81,73314.8,-12.09,-12.71,-13.15,0,*57
1489615654.39,1187,9.81,73318.3,-12.09,-12.71,-13.01,0,*53
1489615655.64,1188,9.81,73308.3,-12.09,-12.65,-13.01,0,*59
1489615656.87,1189,9.81,73300.0,-12.09,-12.65,-12.93,0,*52
1489615658.13,1190,9.81,73276.8,-12.09,-12.65,-12.79,0,*5E
1489615659.39,1191,9.81,73292.8,-12.09,-12.65,-12.71,0,*57
1489615660.65,1192,9.81,73318.0,-12.09,-12.57,-12.71,0,*55
1489615661.91,1193,9.81,73332.8,-12.07,-12.47,-12.61,0,*5A
1489615663.17,1194,9.81,73326.3,-12.07,-12.47,-12.53,0,*5C
1489615664.43,1195,9.81,73316.0,-12.07,-12.47,-12.53,0,*5D
1489615665.69,1196,9.81,73324.8,-12.09,-12.53,-12.53,0,*55
1489615666.94,1197,9.81,73310.0,-12.09,-12.57,-12.57,0,*54
1489615668.21,1198,9.81,73286.8,-12.09,-12.53,-12.53,0,*5B
1489615669.44,1199,9.81,73324.8,-12.07,-12.47,-12.47,0,*54
1489615670.68,1200,9.81,73304.3,-12.05,-12.47,-12.53,0,*50
1489615671.91,1201,9.81,73320.8,-12.07,-12.39,-12.47,0,*5F
1489615673.2,1202,9.81,73334.8,-12.07,-12.35,-12.53,0,*55
1489615674.46,1203,9.81,73322.5,-12.07,-12.35,-12.47,0,*51
1489615675.75,1204,9.81,73320.8,-12.07,-12.35,-12.53,0,*53
1489615676.99,1205,9.81,73320.5,-12.05,-12.35,-12.47,0,*55
1489615678.2,1206,9.81,73282.5,-12.05,-12.39,-12.39,0,*53
1489615679.46,1207,9.81,73264.3,-12.07,-12.39,-12.35,0,*5C
1489615680.69,1208,9.81,73288.8,-12.05,-12.35,-12.39,0,*51
1489615681.96,1209,9.81,73282.5,-12.05,-12.35,-12.35,0,*5C
1489615683.23,1210,9.81,73286.5,-12.01,-12.21,-12.35,0,*55
1489615684.45,1211,9.81,73268.5,-12.05,-12.25,-12.39,0,*58
1489615685.71,1212,9.81,73254.3,-12.05,-12.35,-12.65,0,*53
1489615686.95,1213,9.81,73262.0,-12.01,-12.29,-12.89,0,*59
1489615688.19,1214,9.81,73264.0,-12.01,-12.47,-13.55,0,*56
1489615689.44,1215,9.81,73268.3,-12.01,-12.47,-13.87,0,*58
1489615690.67,1216,9.81,73272.0,-12.05,-12.79,-14.11,0,*5A
1489615691.93,1217,9.75,73258.3,-12.01,-12.83,-14.15,0,*5E
1489615693.14,1218,9.81,73252.8,-11.99,-12.89,-14.15,0,*59
1489615694.38,1219,9.81,73254.8,-12.01,-12.89,-14.15,0,*5A
1489615695.62,1220,9.75,73256.0,-12.01,-12.89,-14.15,0,*50
1489615696.86,1221,9.81,73274.3,-12.01,-12.89,-14.15,0,*51
1489615698.09,1222,9.81,73268.8,-12.01,-12.89,-13.73,0,*55
1489615699.33,1223,9.81,73254.5,-12.01,-12.93,-13.43,0,*5C
1489615700.56,1224,9.81,73258.3,-11.99,-12.93,-13.29,0,*55
1489615701.82,1225,9.81,73248.8,-12.01,-12.83,-13.07,0,*5B
1489615703.1,1226,9.81,73254.3,-12.01,-12.71,-13.01,0,*53
1489615704.36,1227,9.81,73276.3,-12.01,-12.71,-13.07,0,*54
1489615705.63,1228,9.81,73276.8,-12.01,-12.71,-12.93,0,*57
1489615706.86,1229,9.81,73302.3,-11.99,-12.61,-12.93,0,*55
1489615708.12,1230,9.81,73294.8,-12.01,-12.61,-12.93,0,*5F
1489615709.38,1231,9.81,73318.5,-12.01,-12.61,-12.93,0,*5E